Satellite-Ground Cal/Val Region Overpasses Predictions

Prediction of Satellite NPP Overpassing Cal/Val Region: PacNW

Region Location: (Latitude: 10.00, Longitude: 139.50) to (Latitude: 22.70, Longitude: 165.60).

Table of predicted overpasses for the next 14.0 days since TLE Epoch: 1/23/2022
Interval Starting Time Starting Location Ending Time Ending Location
1 01/23/2022 15:43:16 ( 22.66, 149.19) 01/23/2022 15:46:51 ( 10.03, 146.19)
2 01/24/2022 02:52:20 ( 10.01, 156.73) 01/24/2022 02:55:56 ( 22.69, 153.72)
3 01/24/2022 15:24:13 ( 22.66, 153.95) 01/24/2022 15:27:48 ( 10.04, 150.95)
4 01/25/2022 02:33:17 ( 10.00, 161.49) 01/25/2022 02:36:53 ( 22.68, 158.48)
5 01/25/2022 15:05:09 ( 22.67, 158.72) 01/25/2022 15:08:44 ( 10.04, 155.72)
6 01/26/2022 02:15:02 ( 12.88, 165.60) 01/26/2022 02:17:49 ( 22.68, 163.24)
7 01/26/2022 03:55:43 ( 10.01, 140.88) 01/26/2022 03:57:24 ( 15.94, 139.51)
8 01/26/2022 14:46:06 ( 22.67, 163.48) 01/26/2022 14:49:41 ( 10.05, 160.48)
9 01/27/2022 03:36:40 ( 10.01, 145.64) 01/27/2022 03:40:16 ( 22.69, 142.63)
10 01/27/2022 14:30:11 ( 11.58, 165.60) 01/27/2022 14:30:37 ( 10.05, 165.25)
11 01/27/2022 16:08:32 ( 22.66, 142.87) 01/27/2022 16:12:07 ( 10.04, 139.87)
12 01/28/2022 03:17:36 ( 10.00, 150.41) 01/28/2022 03:21:12 ( 22.69, 147.39)
13 01/28/2022 15:49:29 ( 22.66, 147.63) 01/28/2022 15:53:04 ( 10.04, 144.63)
14 01/29/2022 02:58:33 ( 10.00, 155.17) 01/29/2022 03:02:09 ( 22.68, 152.16)
15 01/29/2022 15:30:26 ( 22.67, 152.40) 01/29/2022 15:34:01 ( 10.05, 149.40)
16 01/30/2022 02:39:30 ( 10.06, 159.92) 01/30/2022 02:43:05 ( 22.68, 156.92)
17 01/30/2022 15:11:22 ( 22.67, 157.16) 01/30/2022 15:14:57 ( 10.05, 154.16)
18 01/31/2022 02:20:27 ( 10.06, 164.69) 01/31/2022 02:24:02 ( 22.68, 161.69)
19 01/31/2022 14:52:19 ( 22.67, 161.92) 01/31/2022 14:55:54 ( 10.05, 158.92)
20 02/01/2022 03:42:52 ( 10.01, 144.09) 02/01/2022 03:46:28 ( 22.69, 141.07)
21 02/01/2022 14:34:31 ( 18.21, 165.59) 02/01/2022 14:36:50 ( 10.05, 163.69)
22 02/01/2022 16:14:45 ( 22.66, 141.31) 02/01/2022 16:16:52 ( 15.21, 139.51)
23 02/02/2022 03:23:49 ( 10.01, 148.85) 02/02/2022 03:27:25 ( 22.69, 145.83)
24 02/02/2022 15:55:42 ( 22.66, 146.07) 02/02/2022 15:59:17 ( 10.04, 143.07)
25 02/03/2022 03:04:45 ( 10.01, 153.61) 02/03/2022 03:08:21 ( 22.69, 150.60)
26 02/03/2022 15:36:38 ( 22.66, 150.84) 02/03/2022 15:40:13 ( 10.04, 147.84)
27 02/04/2022 02:45:42 ( 10.01, 158.38) 02/04/2022 02:49:18 ( 22.70, 155.36)
28 02/04/2022 15:17:35 ( 22.66, 155.60) 02/04/2022 15:21:10 ( 10.04, 152.60)
29 02/05/2022 02:26:38 ( 10.01, 163.14) 02/05/2022 02:30:14 ( 22.70, 160.12)
30 02/05/2022 14:58:31 ( 22.66, 160.36) 02/05/2022 15:02:06 ( 10.04, 157.36)
